User: anonymous   Login
Location: Unspecified
(0.0000°N, 0.0000°E)
Time: 03:32:43
(UTC+00:00)
Language:

PERSEUS M1 - Orbit

View from above orbital plane
View from above orbital plane
View from above satellite
View from above satellite

Ground track
Ground track

The orbit data is extracted from the following two-line orbital elements,

1 40039U 14033AF  17173.78324620 +.00000108 +00000-0 +18689-4 0  9993
2 40039 097.9129 082.0847 0012902 285.2379 074.7409 14.85851358163104
Epoch (UTC): 22 June 2017 18:47:52
Eccentricity: 0.0012902
inclination: 97.9129°
perigee height: 602 km
apogee height: 620 km
right ascension of ascending node: 82.0847°
argument of perigee: 285.2379°
revolutions per day: 14.85851358
mean anomaly at epoch: 74.7409°
orbit number at epoch: 16310

The dashed part of the orbit path shows where the satellite is in the earth's shadow,  

DLR